World > North America > United States > North Dakota

Livona, North Dakota Regional Weather

Lat: 46.79N, Lon: 100.78W
Wx Zone: NDZ035Web Search

Ads allow us to feed your daily addiction for the world's greatest weather information. We're determined to offer quality sponsors, in the least annoying way possible.

Feedback


°F Click to change Livona hourly weather to Imperial units.Click to change Livona hourly weather to Metric units. °C
Livona Weather Map
UTC Time: 5/16/2021, 19:25
Your Time:

Livona, ND Regional Weather

Expires:202105162000;;216838
ASUS43 KBIS 161910
RWRND 

NORTH DAKOTA REGIONAL WEATHER ROUNDUP
NATIONAL WEATHER SERVICE BISMARCK ND
200 PM CDT SUN MAY 16 2021

NOTE: "FAIR" INDICATES FEW OR NO CLOUDS BELOW 12,000 FEET WITH NO
SIGNIFICANT WEATHER AND/OR OBSTRUCTIONS TO VISIBILITY.



NDZ018>021-031>035-040>046-162000-
SOUTHWEST NORTH DAKOTA
  
CITY           SKY/WX    TMP DP  RH WIND       PRES   REMARKS
BISMARCK       MOSUNNY   79  44  28 SE9G23    29.99F                  
DICKINSON      MOSUNNY   73  38  27 S8        29.98F                  
GARRISON         N/A     80  40  23 SW15G21   29.96F                  
HETTINGER ARPT MOSUNNY   72  45  37 VRB5G16   30.02F                  
$$
 

SKY/WX - Weather  TMP - Temperature  DP - Dew Point  RH - Relative Humidity
WIND - Wind Direction/Speed PRES - Barometric Pressure VSB - Visibility
WCI - Wind Chill Index E13G22 Wind - East Wind 13 mph/Gusts of 22 mph